EW0184 Weather Reports


Display with metric or nautical units.
time (UTC)temp
F
wind
direction
speed
MPH
gust
MPH
rain 1hr
in
rain 24hr
in
rain mn
in
humidity
%
barometer
mb
20260506033034 65 217 0.0 1.0 0.00 0.00 0.00 31 1004.9
20260506032529 66 225 0.0 1.0 0.00 0.00 0.00 30 1004.7
20260506032026 66 225 0.0 0.0 0.00 0.00 0.00 31 1004.5
20260506031522 67 250 0.0 1.0 0.00 0.00 0.00 31 1004.5
20260506031032 67 219 0.0 1.0 0.00 0.00 0.00 30 1004.4
20260506030529 67 210 0.0 0.0 0.00 0.00 0.00 30 1004.3
20260506030022 68 210 0.0 1.0 0.00 0.00 0.00 29 1004.2
20260506025532 69 201 0.0 2.0 0.00 0.00 0.00 28 1004.1
20260506025028 69 184 0.0 2.0 0.00 0.00 0.00 26 1004.0
20260506024522 69 242 0.0 2.0 0.00 0.00 0.00 27 1004.0
20260506024033 70 155 0.0 3.0 0.00 0.00 0.00 26 1003.9
20260506023531 70 195 0.0 5.0 0.00 0.00 0.00 26 1003.9
20260506023038 70 203 0.0 3.0 0.00 0.00 0.00 26 1003.8
20260506022535 70 174 0.0 5.0 0.00 0.00 0.00 26 1003.8
20260506022030 70 255 1.0 5.0 0.00 0.00 0.00 26 1003.7
20260506021534 70 218 0.0 4.0 0.00 0.00 0.00 26 1003.7
20260506021026 70 204 0.0 4.0 0.00 0.00 0.00 26 1003.5
20260506020533 71 249 0.0 4.0 0.00 0.00 0.00 26 1003.5
20260506020029 71 212 0.0 2.0 0.00 0.00 0.00 26 1003.4
20260506015528 71 226 0.0 4.0 0.00 0.00 0.00 26 1003.4
20260506015038 71 228 0.0 4.0 0.00 0.00 0.00 25 1003.5
20260506014531 72 264 0.0 4.0 0.00 0.00 0.00 26 1003.4
20260506014026 72 300 0.0 4.0 0.00 0.00 0.00 25 1003.2
20260506013533 72 158 1.0 4.0 0.00 0.00 0.00 26 1003.3
20260506013034 72 287 0.0 4.0 0.00 0.00 0.00 26 1003.2
20260506012524 72 255 0.0 3.0 0.00 0.00 0.00 27 1003.2
20260506012043 72 267 0.0 4.0 0.00 0.00 0.00 27 1003.2
20260506011530 72 297 1.0 6.0 0.00 0.00 0.00 27 1003.1
20260506011022 73 39 1.0 4.0 0.00 0.00 0.00 29 1003.1
20260506010535 73 100 0.0 4.0 0.00 0.00 0.00 31 1003.2
20260506010032 73 33 0.0 4.0 0.00 0.00 0.00 32 1003.2
20260506005525 73 264 0.0 5.0 0.00 0.00 0.00 33 1003.1
20260506005035 73 274 1.0 5.0 0.00 0.00 0.00 32 1003.1
20260506004530 73 242 0.0 2.0 0.00 0.00 0.00 33 1003.1
20260506004035 74 227 0.0 4.0 0.00 0.00 0.00 32 1003.0
20260506003530 74 291 0.0 4.0 0.00 0.00 0.00 32 1003.1
20260506003026 74 228 0.0 3.0 0.00 0.00 0.00 32 1002.9
20260506002535 74 231 0.0 4.0 0.00 0.00 0.00 32 1003.0
20260506002031 74 285 0.0 4.0 0.00 0.00 0.00 29 1003.1
20260506001526 74 238 0.0 2.0 0.00 0.00 0.00 30 1002.9
20260506001022 74 255 0.0 5.0 0.00 0.00 0.00 30 1002.8
20260506000532 74 89 0.0 5.0 0.00 0.00 0.00 30 1002.9
20260506000027 74 356 1.0 3.0 0.00 0.00 0.00 30 1002.8
20260505235539 75 19 0.0 2.0 0.00 0.00 0.00 33 1002.9
20260505235031 75 257 0.0 1.0 0.00 0.00 0.00 32 1002.9
20260505234524 75 242 0.0 2.0 0.00 0.00 0.00 31 1002.9
20260505234037 75 224 0.0 4.0 0.00 0.00 0.00 30 1002.9
20260505233530 75 200 0.0 4.0 0.00 0.00 0.00 31 1003.0
20260505233027 76 269 1.0 4.0 0.00 0.00 0.00 29 1003.0
20260505232535 76 114 0.0 6.0 0.00 0.00 0.00 30 1002.9
20260505232031 76 204 1.0 6.0 0.00 0.00 0.00 29 1003.0
20260505231541 76 270 0.0 6.0 0.00 0.00 0.00 31 1003.0
20260505231023 76 260 1.0 6.0 0.00 0.00 0.00 30 1003.1
20260505230535 75 204 1.0 8.0 0.00 0.00 0.00 30 1003.2
20260505230029 76 232 2.0 8.0 0.00 0.00 0.00 29 1003.2
20260505225523 77 286 3.0 8.0 0.00 0.00 0.00 29 1003.2
20260505225033 77 15 1.0 7.0 0.00 0.00 0.00 30 1003.4
20260505224527 76 226 1.0 7.0 0.00 0.00 0.00 29 1003.3
20260505224022 77 238 1.0 6.0 0.00 0.00 0.00 30 1003.5
20260505223532 77 146 1.0 6.0 0.00 0.00 0.00 29 1003.5
20260505223028 77 205 1.0 5.0 0.00 0.00 0.00 30 1003.4
20260505222537 77 153 1.0 6.0 0.00 0.00 0.00 31 1003.7
20260505222031 77 34 1.0 6.0 0.00 0.00 0.00 30 1003.6
20260505221525 78 252 1.0 7.0 0.00 0.00 0.00 30 1003.7
20260505221036 78 269 2.0 7.0 0.00 0.00 0.00 31 1003.8
20260505220531 77 253 1.0 7.0 0.00 0.00 0.00 32 1003.9
20260505220026 76 160 2.0 11.0 0.00 0.00 0.00 31 1004.0
20260505215523 77 58 1.0 11.0 0.00 0.00 0.00 31 1004.1
20260505215031 77 269 1.0 6.0 0.00 0.00 0.00 32 1004.1
20260505214535 76 260 2.0 7.0 0.00 0.00 0.00 32 1004.1
20260505214021 76 274 2.0 8.0 0.00 0.00 0.00 31 1004.3
20260505213532 76 235 3.0 8.0 0.00 0.00 0.00 30 1004.4
20260505213035 76 260 3.0 10.0 0.00 0.00 0.00 31 1004.6
20260505212538 77 180 4.0 12.0 0.00 0.00 0.00 31 1004.6
20260505212030 77 217 4.0 13.0 0.00 0.00 0.00 33 1004.7
20260505211525 76 259 0.0 8.0 0.00 0.00 0.00 36 1004.7
20260505211032 75 165 2.0 8.0 0.00 0.00 0.00 35 1004.9
20260505210530 75 246 3.0 7.0 0.00 0.00 0.00 35 1005.1
20260505210024 75 286 1.0 11.0 0.00 0.00 0.00 37 1005.0
20260505205536 75 137 3.0 11.0 0.00 0.00 0.00 36 1005.0
20260505205030 75 218 2.0 7.0 0.00 0.00 0.00 37 1005.3
20260505204526 74 288 2.0 7.0 0.00 0.00 0.00 39 1005.5
20260505204036 74 243 2.0 6.0 0.00 0.00 0.00 39 1005.6
20260505203532 73 274 1.0 5.0 0.00 0.00 0.00 39 1005.7
20260505203037 73 190 0.0 6.0 0.00 0.00 0.00 40 1005.9
20260505202534 72 287 1.0 6.0 0.00 0.00 0.00 39 1005.8
20260505202029 71 245 1.0 9.0 0.00 0.00 0.00 40 1006.0
20260505201531 72 118 2.0 7.0 0.00 0.00 0.00 40 1006.2
20260505201035 72 218 1.0 9.0 0.00 0.00 0.00 41 1006.2
20260505200532 72 298 1.0 6.0 0.00 0.00 0.00 42 1006.2
20260505200024 71 229 1.0 9.0 0.00 0.00 0.00 41 1006.2
20260505195535 71 131 3.0 10.0 0.00 0.00 0.00 42 1006.4
20260505195029 71 259 1.0 8.0 0.00 0.00 0.00 43 1006.4
20260505194526 71 77 2.0 9.0 0.00 0.00 0.00 43 1006.6
20260505194036 71 242 2.0 11.0 0.00 0.00 0.00 43 1006.7
20260505193529 70 169 2.0 11.0 0.00 0.00 0.00 42 1006.5
20260505193042 71 238 1.0 12.0 0.00 0.00 0.00 42 1006.7
20260505192534 70 263 2.0 12.0 0.00 0.00 0.00 43 1006.5
20260505192030 69 278 1.0 15.0 0.00 0.00 0.00 45 1006.7
20260505191525 69 313 5.0 15.0 0.00 0.00 0.00 46 1006.8
20260505191035 67 219 3.0 12.0 0.00 0.00 0.00 50 1007.1
20260505190529 67 271 6.0 12.0 0.00 0.00 0.00 47 1006.9
20260505190030 67 259 4.0 9.0 0.00 0.00 0.00 47 1007.1
20260505185522 67 257 4.0 12.0 0.00 0.00 0.00 47 1007.1
20260505185031 68 300 4.0 12.0 0.00 0.00 0.00 46 1007.3
20260505184534 68 304 3.0 11.0 0.00 0.00 0.00 45 1007.4
20260505184027 68 287 5.0 15.0 0.00 0.00 0.00 43 1007.7
20260505183537 68 255 4.0 15.0 0.00 0.00 0.00 42 1007.7
20260505183036 68 70 6.0 14.0 0.00 0.00 0.00 42 1007.7
20260505182536 68 240 1.0 7.0 0.00 0.00 0.00 43 1007.3
20260505182030 68 59 3.0 9.0 0.00 0.00 0.00 42 1007.1
20260505181533 68 246 2.0 13.0 0.00 0.00 0.00 43 1007.0
20260505181026 69 265 3.0 13.0 0.00 0.00 0.00 41 1007.1
20260505180526 69 250 2.0 13.0 0.00 0.00 0.00 41 1007.1
20260505180022 70 49 4.0 13.0 0.00 0.00 0.00 40 1006.9
20260505175533 71 284 2.0 9.0 0.00 0.00 0.00 40 1006.8
20260505175028 71 32 2.0 8.0 0.00 0.00 0.00 39 1006.6
20260505174529 71 255 2.0 7.0 0.00 0.00 0.00 40 1006.9
20260505174032 71 304 1.0 7.0 0.00 0.00 0.00 38 1006.8
20260505173527 71 334 1.0 7.0 0.00 0.00 0.00 36 1006.7
20260505173022 72 239 0.0 8.0 0.00 0.00 0.00 38 1006.7
20260505172531 72 250 2.0 9.0 0.00 0.00 0.00 35 1006.7
20260505172028 73 340 2.0 10.0 0.00 0.00 0.00 38 1006.6
20260505171522 72 174 1.0 8.0 0.00 0.00 0.00 38 1006.5
20260505171032 72 219 0.0 8.0 0.00 0.00 0.00 37 1006.5
20260505170527 72 320 0.0 5.0 0.00 0.00 0.00 37 1006.5
20260505170022 72 255 1.0 9.0 0.00 0.00 0.00 37 1006.5
20260505165533 72 229 2.0 9.0 0.00 0.00 0.00 36 1006.4
20260505165028 73 245 1.0 4.0 0.00 0.00 0.00 37 1006.3
20260505164523 73 139 0.0 5.0 0.00 0.00 0.00 36 1006.3
20260505164033 73 188 0.0 4.0 0.00 0.00 0.00 38 1006.3
20260505163530 72 98 0.0 4.0 0.00 0.00 0.00 38 1006.3
20260505163029 72 287 0.0 3.0 0.00 0.00 0.00 38 1006.5
20260505162534 71 226 0.0 2.0 0.00 0.00 0.00 40 1006.4
20260505162030 70 152 0.0 3.0 0.00 0.00 0.00 40 1006.4
20260505161525 69 265 0.0 3.0 0.00 0.00 0.00 40 1006.5
20260505161034 69 170 0.0 2.0 0.00 0.00 0.00 42 1006.5
20260505160530 69 285 0.0 2.0 0.00 0.00 0.00 42 1006.4
20260505153028 66 252 0.0 3.0 0.00 0.00 0.00 50 1006.6
20260505152535 66 288 0.0 3.0 0.00 0.00 0.00 50 1006.7
20260505152030 65 210 0.0 1.0 0.00 0.00 0.00 52 1006.6
20260505151525 65 229 0.0 1.0 0.00 0.00 0.00 54 1006.7
20260505151023 65 162 0.0 0.0 0.00 0.00 0.00 55 1006.7
20260505150535 65 162 0.0 1.0 0.00 0.00 0.00 54 1006.6
20260505140529 60 121 0.0 0.0 0.00 0.00 0.00 62 1007.1
20260505125029 56 153 0.0 1.0 0.00 0.00 0.00 66 1006.6
20260505124523 56 138 0.0 1.0 0.00 0.00 0.00 66 1006.4
20260505124034 57 138 0.0 0.0 0.00 0.00 0.00 66 1006.3
20260505123529 57 138 0.0 0.0 0.00 0.00 0.00 65 1006.3
20260505123025 57 139 0.0 0.0 0.00 0.00 0.00 64 1006.3
20260505122535 57 138 0.0 1.0 0.00 0.00 0.00 64 1006.3
20260505122029 57 138 0.0 1.0 0.00 0.00 0.00 63 1006.2
20260505121526 57 177 0.0 0.0 0.00 0.00 0.00 64 1006.1
20260505121021 57 177 0.0 0.0 0.00 0.00 0.00 64 1006.1
20260505120530 57 177 0.0 0.0 0.00 0.00 0.00 63 1006.0
20260505120026 57 177 0.0 0.0 0.00 0.00 0.00 63 1006.1
20260505115535 57 178 0.0 1.0 0.00 0.00 0.00 63 1006.1
20260505115029 57 177 0.0 1.0 0.00 0.00 0.00 63 1006.0
20260505114524 57 204 0.0 1.0 0.00 0.00 0.00 63 1006.1
20260505114034 57 210 0.0 0.0 0.00 0.00 0.00 64 1006.1
20260505113530 57 210 0.0 1.0 0.00 0.00 0.00 63 1006.1
20260505113025 57 210 0.0 1.0 0.00 0.00 0.00 63 1006.0
20260505112521 57 138 0.0 0.0 0.00 0.00 0.00 61 1006.0
20260505112031 57 138 0.0 0.0 0.00 0.00 0.00 60 1006.0
20260505111527 57 138 0.0 0.0 0.00 0.00 0.00 58 1005.8
20260505111022 58 138 0.0 0.0 0.00 0.00 0.00 58 1005.8
20260505110532 58 138 0.0 1.0 0.00 0.00 0.00 58 1005.8
20260505102021 55 115 0.0 0.0 0.00 0.00 0.00 63 1006.1
20260505101534 55 114 0.0 0.0 0.00 0.00 0.00 62 1006.0
20260505101025 56 114 0.0 0.0 0.00 0.00 0.00 61 1005.9
20260505100538 56 114 0.0 0.0 0.00 0.00 0.00 61 1005.8
20260505100031 56 114 0.0 0.0 0.00 0.00 0.00 61 1005.9
20260505095525 56 114 0.0 0.0 0.00 0.00 0.00 61 1005.7
20260505095020 56 114 0.0 0.0 0.00 0.00 0.00 62 1005.6
20260505094535 57 115 0.0 0.0 0.00 0.00 0.00 61 1005.7
20260505094027 57 114 0.0 0.0 0.00 0.00 0.00 60 1005.8
20260505093031 57 114 0.0 0.0 0.00 0.00 0.00 59 1005.8
20260505092521 57 114 0.0 0.0 0.00 0.00 0.00 58 1005.6
20260505092039 57 114 0.0 0.0 0.00 0.00 0.00 57 1005.6
20260505091528 57 114 0.0 0.0 0.00 0.00 0.00 57 1005.7
20260505091035 57 114 0.0 1.0 0.00 0.00 0.00 57 1005.6
20260505090529 57 114 0.0 0.0 0.00 0.00 0.00 55 1005.7
20260505090025 58 114 0.0 0.0 0.00 0.00 0.00 55 1005.9
20260505085537 58 114 0.0 0.0 0.00 0.00 0.00 55 1006.2
20260505085033 59 114 0.0 0.0 0.00 0.00 0.00 53 1006.2
20260505084528 59 114 0.0 1.0 0.00 0.00 0.00 51 1006.2
20260505084038 59 114 0.0 1.0 0.00 0.00 0.00 51 1006.1
20260505083532 60 114 0.0 1.0 0.00 0.00 0.00 51 1006.1
20260505083029 60 114 0.0 1.0 0.00 0.00 0.00 50 1006.2
20260505082523 60 114 0.0 1.0 0.00 0.00 0.00 50 1006.3
20260505082033 60 256 0.0 0.0 0.00 0.00 0.00 50 1006.1
20260505081532 61 256 0.0 0.0 0.00 0.00 0.00 50 1006.1
20260505081023 62 256 0.0 0.0 0.00 0.00 0.00 50 1006.3
20260505080533 62 256 0.0 0.0 0.00 0.00 0.00 49 1006.2
20260505080032 62 256 0.0 1.0 0.00 0.00 0.00 48 1006.2
20260505075524 63 250 0.0 1.0 0.00 0.00 0.00 48 1006.3
20260505075032 63 249 0.0 1.0 0.00 0.00 0.00 47 1006.3
20260505074529 63 250 0.0 1.0 0.00 0.00 0.00 47 1006.2
20260505074039 64 285 0.0 1.0 0.00 0.00 0.00 48 1006.3
20260505073618 64 110 0.0 1.0 0.00 0.00 0.00 46 1006.1
20260505072530 64 235 0.0 1.0 0.00 0.00 0.00 45 1006.5
20260505072024 64 267 0.0 3.0 0.00 0.00 0.00 46 1006.5
20260505071535 63 274 0.0 2.0 0.00 0.00 0.00 46 1006.6
20260505071030 63 287 0.0 2.0 0.00 0.00 0.00 46 1006.5
20260505070527 62 257 0.0 1.0 0.00 0.00 0.00 46 1006.5
20260505070042 62 195 0.0 1.0 0.00 0.00 0.00 45 1006.5
20260505065531 62 191 0.0 0.0 0.00 0.00 0.00 42 1006.3
20260505065029 62 191 0.0 0.0 0.00 0.00 0.00 42 1006.2
20260505064537 62 191 0.0 0.0 0.00 0.00 0.00 40 1006.1
20260505064032 62 191 0.0 0.0 0.00 0.00 0.00 38 1006.1
20260505063526 62 191 0.0 0.0 0.00 0.00 0.00 38 1006.2
20260505063024 62 191 0.0 0.0 0.00 0.00 0.00 38 1006.2
20260505062533 62 191 0.0 0.0 0.00 0.00 0.00 38 1006.3
20260505062028 62 192 0.0 0.0 0.00 0.00 0.00 40 1006.2
20260505061523 62 191 0.0 0.0 0.00 0.00 0.00 38 1006.2
20260505061033 62 191 0.0 0.0 0.00 0.00 0.00 36 1006.1
20260505060529 63 191 0.0 0.0 0.00 0.00 0.00 36 1006.2
20260505060036 63 191 0.0 0.0 0.00 0.00 0.00 37 1006.2
20260505055533 63 191 0.0 0.0 0.00 0.00 0.00 39 1006.3
20260505055027 63 191 0.0 0.0 0.00 0.00 0.00 37 1006.5
20260505054534 63 191 0.0 1.0 0.00 0.00 0.00 38 1006.5
20260505054035 63 191 0.0 0.0 0.00 0.00 0.00 36 1006.5
20260505053529 64 191 0.0 0.0 0.00 0.00 0.00 35 1006.5
20260505053022 64 191 0.0 0.0 0.00 0.00 0.00 34 1006.5
20260505052533 64 191 0.0 0.0 0.00 0.00 0.00 33 1006.3
20260505052028 65 191 0.0 0.0 0.00 0.00 0.00 34 1006.3
20260505051523 65 191 0.0 0.0 0.00 0.00 0.00 34 1006.4
20260505051033 66 191 0.0 0.0 0.00 0.00 0.00 33 1006.4
20260505050531 66 191 0.0 0.0 0.00 0.00 0.00 31 1006.3
20260505041532 69 46 0.0 1.0 0.00 0.00 0.00 25 1006.3
20260505041026 69 46 0.0 1.0 0.00 0.00 0.00 26 1006.2
20260505040537 69 22 0.0 1.0 0.00 0.00 0.00 26 1006.3
20260505040032 70 238 0.0 1.0 0.00 0.00 0.00 26 1006.2
20260505035525 70 322 0.0 4.0 0.00 0.00 0.00 25 1006.2
20260505035038 70 145 0.0 4.0 0.00 0.00 0.00 25 1006.0
20260505034530 71 260 0.0 2.0 0.00 0.00 0.00 25 1005.9
20260505034027 71 280 0.0 2.0 0.00 0.00 0.00 24 1005.9
20260505033523 71 236 0.0 2.0 0.00 0.00 0.00 24 1005.8